Regional Weather Roundup
Issued by NWS Nashville, TN

Home | Current Version | Previous Version | Text Only | Print | Product List | Glossary On
Versions: 1 2 3 4 5 6 7 8 9 10 11 12 13 14 15 16 17 18 19 20 21 22 23 24 25 26 27 28 29 30 31 32 33 34 35 36 37 38 39 40 41 42 43 44 45 46 47 48 49 50
000
ASUS44 KOHX 230010
RWROHX
MIDDLE TENNESSEE HOURLY WEATHER ROUNDUP
NATIONAL WEATHER SERVICE NASHVILLE TN
700 PM CDT WED MAR 22 2017

NOTE: "FAIR" INDICATES FEW OR NO CLOUDS BELOW 12,000 FEET WITH
NO SIGNIFICANT WEATHER AND/OR OBSTRUCTIONS TO VISIBILITY.

* THESE REPORTS ARE NOT UNDER NWS QUALITY CONTROL AND MAY NOT
  REPORT WEATHER SUCH AS PRECIPITATION AND FOG.


TNZ005>011-023>034-057-059-062>066-078-080-230100
...NORTHERN MIDDLE TENNESSEE...

CITY           SKY/WX    TMP DP  RH WIND       PRES   REMARKS
CLARKSVILLE    CLEAR     50  19  29 E9        30.33R
CROSSVILLE     CLEAR     49  17  28 NE9       30.28R
GALLATIN       CLEAR     50  19  29 N8        30.36R
NASHVILLE      MOCLDY    52  19  27 N12       30.33R
PORTLAND       CLEAR     48  18  29 NE9       30.34R
SMYRNA         PTCLDY    53  20  27 N10       30.33R
SPARTA         CLEAR     50  18  27 N8        30.29R
SPRINGFIELD    CLEAR     50  19  29 NE8       30.33R
WEST NASHVILLE CLEAR     52  18  25 NE8       30.33R
$$
TNZ056-058-060-061-075>077-079-093>097-230100
...SOUTHERN MIDDLE TENNESSEE...

CITY           SKY/WX    TMP DP  RH WIND       PRES   REMARKS
COLUMBIA       CLEAR     55  21  26 NE6       30.29R
FAYETTEVILLE   CLEAR     55  28  35 N7        30.26R
MCMINNVILLE    CLEAR     52  18  25 N10       30.29R
SHELBYVILLE    CLEAR     54  25  32 N6        30.30R
TULLAHOMA      CLEAR     54  12  19 NE6       30.28R
WINCHESTER     CLEAR     52  21  30 N8        30.27R
$$


...KEY TO REMARKS...
VSB - VISIBILITY IN MILES
WCI - WIND CHILL INDEX
HX  - HEAT INDEX




USA.gov is the U.S. government's official web portal to all federal, state and local government web resources and services.